This is the latest recevied weather packets stored in our database for station/object 9A7DI-13. If no packets are shown the sender has not sent any weather packets the latest 10 day(s).
| Time | Temp. | Humidity | Pressure | Rain* | Wind** | Luminosity | Snow |
|---|---|---|---|---|---|---|---|
| 1777940830 | 10.56° C | 64% | 1023.4 hPa | - | - | - | - |
| 1777940230 | 10° C | 64% | 1023.5 hPa | - | - | - | - |
| 1777939630 | 10° C | 62% | 1023.5 hPa | - | - | - | - |
| 1777939030 | 10° C | 65% | 1023.6 hPa | - | - | - | - |
| 1777938430 | 10.56° C | 64% | 1023.7 hPa | - | - | - | - |
| 1777937830 | 10.56° C | 64% | 1023.7 hPa | - | - | - | - |
| 1777937230 | 11.11° C | 61% | 1023.8 hPa | - | - | - | - |
| 1777936630 | 10.56° C | 63% | 1023.9 hPa | - | - | - | - |
| 1777936030 | 10.56° C | 61% | 1023.9 hPa | - | - | - | - |
| 1777935430 | 11.11° C | 61% | 1023.9 hPa | - | - | - | - |
| 1777934830 | 10.56° C | 62% | 1024 hPa | - | - | - | - |
| 1777934230 | 10.56° C | 63% | 1024 hPa | - | - | - | - |
| 1777933630 | 11.11° C | 60% | 1024.2 hPa | - | - | - | - |
| 1777933030 | 11.67° C | 60% | 1024.3 hPa | - | - | - | - |
| 1777932430 | 11.67° C | 57% | 1024.2 hPa | - | - | - | - |
| 1777931830 | 12.22° C | 59% | 1023.9 hPa | - | - | - | - |
| 1777931230 | 12.22° C | 59% | 1023.8 hPa | - | - | - | - |
| 1777930630 | 12.22° C | 58% | 1023.9 hPa | - | - | - | - |
| 1777930030 | 12.22° C | 59% | 1023.8 hPa | - | - | - | - |
| 1777929430 | 13.33° C | 55% | 1023.8 hPa | - | - | - | - |
| 1777928830 | 13.33° C | 53% | 1023.9 hPa | - | - | - | - |
| 1777928230 | 13.33° C | 52% | 1023.9 hPa | - | - | - | - |
| 1777927630 | 13.89° C | 52% | 1023.9 hPa | - | - | - | - |
| 1777927030 | 13.89° C | 53% | 1023.8 hPa | - | - | - | - |
| 1777926430 | 14.44° C | 53% | 1023.8 hPa | - | - | - | - |
* Rain since midnight (hover to see other rain measurements)
** Current wind speed in m/s (hover to see current wind gust speed)